This demonstration page uses our WeatherBlox Daily Observations layout. Learn more.

Left ArrowRight Arrow

39.51506, -84.39828

Hourly Observations for May 11, 2021

Temp ( °F °C ) Dew Point ( °F °C ) Humidity (%) Winds ( mph kmh ) Pressure ( in mb ) Visibility ( mi km ) Precip ( " mm )
12:15 am 00:15 Mostly Cloudy 47 8.5 47 8.1 97 97 Calm 30.17 1022 10 16 0.00 0.00
12:35 am 00:35 Cloudy 47 8.4 47 8.1 98 98 Calm 30.17 1022 10 16 0.00 0.00
12:55 am 00:55 Cloudy 46 8 46 8 100 100 Calm 30.17 1022 10 16 0.00 0.00
1:15 am 01:15 Cloudy 48 8.8 47 8.2 96 96 ENE 5 7 30.17 1022 10 16 0.00 0.00
1:35 am 01:35 Cloudy 50 9.8 44 6.8 82 82 ENE 3 6 30.17 1022 10 16 0.00 0.00
1:55 am 01:55 Partly Cloudy 49 9.2 44 6.4 83 83 NNE 6 9 30.18 1022 10 16 0.00 0.00
2:15 am 02:15 Clear 49 9.2 43 6.2 82 82 NE 6 9 30.18 1022 10 16 0.00 0.00
2:35 am 02:35 Clear 48 9 44 6.7 86 86 NNE 8 13 30.18 1022 10 16 0.00 0.00
2:55 am 02:55 Partly Cloudy 49 9.2 44 6.6 84 84 NE 9 15 30.18 1022 10 16 0.00 0.00
3:15 am 03:15 Cloudy 48 8.8 44 6.6 86 86 NNE 6 9 30.18 1022 10 16 0.00 0.00
3:35 am 03:35 Cloudy 48 8.8 44 6.8 87 87 NNE 5 7 30.18 1022 10 16 0.00 0.00
3:55 am 03:55 Partly Cloudy 47 8.4 44 6.9 90 90 NE 5 7 30.18 1022 10 16 0.00 0.00
4:15 am 04:15 Cloudy 48 8.8 45 7.4 91 91 NE 5 7 30.18 1022 10 16 0.00 0.00
4:35 am 04:35 Cloudy 48 8.8 46 7.5 92 92 NNE 5 7 30.19 1022 10 16 0.00 0.00
4:55 am 04:55 Cloudy 48 8.8 46 7.6 92 92 NE 3 6 30.18 1022 10 16 0.00 0.00
5:15 am 05:15 Cloudy 47 8.6 46 7.5 93 93 NNE 3 6 30.19 1022 10 16 0.00 0.00
5:35 am 05:35 Cloudy 47 8.4 46 7.8 96 96 N 3 6 30.20 1023 10 16 0.00 0.00
5:55 am 05:55 Cloudy 47 8.5 46 7.5 94 94 N 5 7 30.22 1023 10 16 0.00 0.00
6:15 am 06:15 Cloudy 47 8.6 45 7.2 91 91 N 5 7 30.23 1024 10 16 0.00 0.00
6:35 am 06:35 Cloudy 47 8.4 45 7.2 92 92 NNE 5 7 30.23 1024 10 16 0.00 0.00
6:55 am 06:55 Cloudy 47 8.6 45 7 90 90 NE 8 13 30.23 1024 10 16 0.00 0.00
7:15 am 07:15 Cloudy 47 8.4 44 6.7 89 89 NE 8 13 30.23 1024 10 16 0.00 0.00
7:35 am 07:35 Cloudy with Light Rain 46 8 43 6.1 88 88 NE 8 13 30.25 1025 10 16 0.00 0.00
7:55 am 07:55 Cloudy 45 7.1 39 3.9 80 80 NNE 8 13 30.27 1025 10 16 0.00 0.00
8:15 am 08:15 Cloudy 45 7 38 3.2 77 77 NNE 7 11 30.28 1025 10 16 0.00 0.00
8:35 am 08:35 Cloudy 46 7.5 39 3.9 78 78 NNE 6 9 30.28 1025 10 16 0.00 0.00
8:55 am 08:55 Cloudy 46 8 38 3.3 72 72 NNE 12 19 30.28 1026 10 16 0.00 0.00
9:15 am 09:15 Cloudy 46 8 36 2.4 68 68 NNE 10 17 30.28 1026 10 16 0.00 0.00
9:35 am 09:35 Cloudy 48 8.9 38 3.1 67 67 NE 12 19 30.28 1025 10 16 0.00 0.00
9:55 am 09:55 Cloudy 47 8.4 37 2.5 67 67 NE 12 19 30.29 1026 10 16 0.00 0.00
10:15 am 10:15 Cloudy 47 8.5 36 2.4 66 66 NE 14 22 30.29 1026 10 16 0.00 0.00
10:35 am 10:35 Cloudy 47 8.6 36 2.3 65 65 NNE 12 19 30.30 1026 10 16 0.00 0.00
10:55 am 10:55 Cloudy 48 9.1 36 2 61 61 NE 10 17 30.31 1026 10 16 0.00 0.00
11:15 am 11:15 Mostly Cloudy 51 10.4 38 3.1 61 61 ENE 8 13 30.31 1026 10 16 0.00 0.00
11:35 am 11:35 Mostly Cloudy 52 11 35 1.5 52 52 ENE 12 19 30.31 1026 10 16 0.00 0.00
11:55 am 11:55 Cloudy 53 11.5 35 1.7 51 51 NE 8 13 30.31 1026 10 16 0.00 0.00
12:15 pm 12:15 Mostly Cloudy 53 11.6 36 2.4 54 54 NNE 10 17 30.31 1026 10 16 0.00 0.00
12:35 pm 12:35 Sunny 54 12.1 36 2.4 52 52 ENE 12 19 30.30 1026 10 16 0.00 0.00
12:55 pm 12:55 Sunny 54 12 36 2 51 51 NNE 8 13 30.30 1026 10 16 0.00 0.00
1:15 pm 13:15 Sunny 55 13 33 0.7 43 43 N 8 13 30.30 1026 10 16 0.00 0.00
1:35 pm 13:35 Sunny 56 13.2 34 1.2 44 44 N 13 20 30.29 1026 10 16 0.00 0.00
1:55 pm 13:55 Sunny 56 13.3 35 1.5 45 45 N 12 19 30.29 1026 10 16 0.00 0.00
2:15 pm 14:15 Sunny 56 13.2 34 1.3 45 45 NNW 10 17 30.29 1026 10 16 0.00 0.00
2:35 pm 14:35 Sunny 56 13.4 33 0.5 42 42 N 12 19 30.28 1025 10 16 0.00 0.00
3:00 pm 15:00 Partly Cloudy 57 14 35 1.8 44 44 NE 16 26 30.28 1025 10 16 0.00 0.00
3:15 pm 15:15 Mostly Cloudy 56 13.4 34 1.2 44 44 NNW 14 22 30.27 1025 10 16 0.00 0.00
3:35 pm 15:35 Partly Cloudy 57 14 35 1.4 43 43 N 18 30 30.27 1025 10 16 0.00 0.00
3:55 pm 15:55 Partly Cloudy 57 13.9 34 0.9 41 41 NNE 14 22 30.27 1025 10 16 0.00 0.00
4:15 pm 16:15 Partly Cloudy 56 13.1 32 0 41 41 NNE 14 22 30.26 1025 10 16 0.00 0.00
4:35 pm 16:35 Partly Cloudy 57 14.1 34 1.1 41 41 NE 10 17 30.25 1024 10 16 0.00 0.00
4:55 pm 16:55 Partly Cloudy 57 13.8 34 0.9 42 42 NE 13 20 30.25 1024 10 16 0.00 0.00
5:15 pm 17:15 Partly Cloudy 57 13.8 33 0.3 40 40 NE 12 19 30.27 1025 10 16 0.00 0.00
5:35 pm 17:35 Partly Cloudy 56 13.6 32 0.1 40 40 N 13 20 30.27 1025 10 16 0.00 0.00
5:55 pm 17:55 Sunny 56 13.2 31 -0.8 38 38 NNE 10 17 30.28 1025 10 16 0.00 0.00
6:15 pm 18:15 Partly Cloudy 55 12.7 31 -0.3 41 41 NE 10 17 30.27 1025 10 16 0.00 0.00
6:35 pm 18:35 Partly Cloudy 55 12.7 32 -0.2 41 41 NE 12 19 30.27 1025 10 16 0.00 0.00
6:55 pm 18:55 Sunny 54 12.3 31 -0.7 41 41 NNE 10 17 30.26 1025 10 16 0.00 0.00
7:15 pm 19:15 Sunny 54 12 32 -0.2 43 43 NNE 8 13 30.27 1025 10 16 0.00 0.00
7:35 pm 19:35 Sunny 54 12 31 -0.8 41 41 NNE 10 17 30.28 1026 10 16 0.00 0.00
7:55 pm 19:55 Sunny 53 11.5 31 -0.3 44 44 NNE 8 13 30.30 1026 10 16 0.00 0.00
8:15 pm 20:15 Sunny 52 11.2 31 -0.4 45 45 NNE 6 9 30.31 1026 10 16 0.00 0.00
8:35 pm 20:35 Sunny 51 10.3 33 0.4 51 51 NNE 6 9 30.31 1026 10 16 0.00 0.00
8:55 pm 20:55 Clear 50 9.9 33 0.7 53 53 N 3 6 30.32 1027 10 16 0.00 0.00
9:15 pm 21:15 Clear 48 9 37 2.6 65 65 NNE 5 7 30.32 1027 10 16 0.00 0.00
9:35 pm 21:35 Clear 47 8.4 36 2.2 65 65 N 3 6 30.34 1028 10 16 0.00 0.00
9:55 pm 21:55 Clear 44 6.9 39 3.9 81 81 Calm 30.36 1028 10 16 0.00 0.00
10:15 pm 22:15 Clear 43 6.3 37 2.6 77 77 NNE 5 7 30.37 1028 10 16 0.00 0.00
10:35 pm 22:35 Clear 43 6 38 3.2 82 82 NE 5 7 30.37 1028 10 16 0.00 0.00
10:55 pm 22:55 Clear 43 6.3 37 2.8 79 79 NE 6 9 30.37 1028 10 16 0.00 0.00
11:15 pm 23:15 Clear 43 6.2 37 3 80 80 Calm 30.38 1029 10 16 0.00 0.00
11:35 pm 23:35 Clear 42 5.3 38 3.3 87 87 N 5 7 30.37 1028 10 16 0.00 0.00
11:55 pm 23:55 Clear 41 4.8 38 3.4 91 91 NNE 5 7 30.37 1029 10 16 0.00 0.00

Powered by AerisWeather